Back to catalog

STARLINK-34959

AliveCommunicationsSSO
NORAD 65246·PAYLOAD·🇺🇸 United States

Launched Aug 18, 2025 from Vandenberg Space Force Base

Loading…

Next Passes (next 24 hours)

TLE

FreshSource: CelesTrak SupGP

Epoch: Sep 14, 2026, 14:33 UTC

1 65246C 25179M   26257.60673611  .00008045  00000+0  24970-3 0  2577
2 65246  97.2837 297.0744 0001096 118.8274 185.7862 15.33439776    17

Track STARLINK-34959 in real time with AllMySat

Download on the App Store